Volver al catálogo

STARLINK-38112

ActivoComunicacionesSSO
NORAD 100181·PAYLOAD·🇺🇸 United States

Lanzado Aug 1, 2026 desde Vandenberg Space Force Base

Loading…

Próximos Pases (próximas 24 horas)

TLE

ActualizadoSource: Space-Track

Época: Sep 14, 2026, 12:04 UTC

1 A0181U 26175C   26257.50337710  .00225854  00000-0  14710-2 0  9990
2 A0181  97.2843  99.6653 0001434  94.2729 265.8700 15.75259173  8234

Sigue STARLINK-38112 en tiempo real con AllMySat

Download on the App Store